Ontario, OR

5:54 AM MDT on September 25, 2016 (GMT -0600)
Ontario Municipal

Weather History for KONO - December, 2013

Change the Weather History Date:

Friday, December 13, 2013

  Actual Average Record
Temperature  
Mean Temperature 20 °F 28 °F  
Max Temperature 27 °F 36 °F 65 °F (1995)
Min Temperature 13 °F 20 °F -13 °F (1972)
Degree Days  
Heating Degree Days 45 37  
Month to date heating degree days 609 465  
Since 1 July heating degree days 2004 1893  
Cooling Degree Days 0 0  
Month to date cooling degree days 0 0  
Year to date cooling degree days 1299 852  
Moisture  
Dew Point 15 °F    
Average Humidity 78    
Maximum Humidity 88    
Minimum Humidity 68    
Precipitation  
Precipitation 0.01 in 0.05 in 0.59 in (1994)
Month to date precipitation 0.24 0.65  
Year to date precipitation 5.07 9.03  
Sea Level Pressure  
Sea Level Pressure 30.49 in    
Wind  
Wind Speed 2 mph (SW)    
Max Wind Speed 7 mph    
Max Gust Speed 9 mph    
Visibility 5 miles    
Events Snow    
T = Trace of Precipitation, MM = Missing Value Source: NWS Daily Summary

Daily Weather History Graph

Daily Weather History Graph

Search for Another Location

Airport or City:

Trip Planner

Search our weather history database for the weather conditions in past years. The results will help you decide how hot, cold, wet, or windy it might be!

Date:

Astronomy

Dec. 13, 2013 Rise Set
Actual Time 8:14 AM MST 5:10 PM MST
Civil Twilight 7:41 AM MST 5:43 PM MST
Nautical Twilight 7:05 AM MST 6:19 PM MST
Astronomical Twilight 6:30 AM MST 6:54 PM MST
Moon 3:00 PM MST (12/13) 4:36 AM MST (12/13)
Length of Visible Light 10h 01m
Length of Day
8h 55m
Waxing Gibbous, 88% of the Moon is Illuminated
Dec 13
Waxing Gibbous
Dec 17
Full
Dec 25
Last Quarter
Jan 1
New
Jan 7
First Quarter

Hourly Weather History & Observations

Time (MST) Temp. Windchill Dew Point Humidity Pressure Visibility Wind Dir Wind Speed Gust Speed Precip Events Conditions
12:53 AM 14.0 °F - 9.0 °F 80% 30.46 in 7.0 mi Calm Calm - N/A   Overcast
1:51 AM 15.8 °F - 10.4 °F 79% 30.33 in 2.5 mi Calm Calm - 0.00 in Snow Light Snow
1:53 AM 15.1 °F - 10.0 °F 80% 30.45 in 2.0 mi Calm Calm - 0.00 in Snow Light Snow
2:00 AM 16.0 °F - 10.9 °F 81% 30.33 in 1.0 mi Calm Calm - 0.00 in Snow Light Snow
2:15 AM 16.0 °F - 10.9 °F 81% 30.33 in 2.0 mi Calm Calm - 0.00 in Snow Light Snow
2:20 AM 16.0 °F - 10.9 °F 81% 30.33 in 3.0 mi Calm Calm - 0.00 in Snow Light Snow
2:27 AM 16.0 °F - 10.9 °F 81% 30.33 in 2.0 mi Calm Calm - 0.00 in Snow Light Snow
2:36 AM 16.0 °F - 10.9 °F 81% 30.33 in 1.2 mi Calm Calm - 0.00 in Snow Light Snow
2:50 AM 15.8 °F - 12.2 °F 86% 30.34 in 2.5 mi Calm Calm - 0.01 in Snow Light Snow
2:53 AM 16.0 °F - 12.0 °F 84% 30.45 in 3.0 mi Calm Calm - 0.01 in Snow Light Snow
3:53 AM 16.0 °F - 12.0 °F 84% 30.45 in 5.0 mi Calm Calm - 0.00 in   Overcast
4:53 AM 15.1 °F - 10.9 °F 84% 30.45 in 5.0 mi Calm Calm - N/A   Mostly Cloudy
5:53 AM 17.1 °F 11.7 °F 12.0 °F 81% 30.47 in 5.0 mi WSW 3.5 mph - N/A   Haze
6:53 AM 16.0 °F - 12.0 °F 84% 30.48 in 5.0 mi Calm Calm - N/A   Overcast
7:53 AM 16.0 °F 8.8 °F 12.0 °F 84% 30.50 in 6.0 mi WSW 4.6 mph - N/A   Overcast
8:53 AM 18.0 °F - 14.0 °F 84% 30.52 in 5.0 mi Calm Calm - N/A   Overcast
9:53 AM 19.9 °F - 15.1 °F 81% 30.54 in 6.0 mi Calm Calm - N/A   Haze
10:53 AM 21.9 °F - 15.1 °F 75% 30.55 in 7.0 mi Calm Calm - N/A   Scattered Clouds
11:53 AM 23.0 °F - 16.0 °F 74% 30.53 in 7.0 mi Calm Calm - N/A   Partly Cloudy
12:53 PM 25.0 °F - 17.1 °F 72% 30.53 in 6.0 mi Calm Calm - N/A   Haze
1:53 PM 25.0 °F 19.3 °F 18.0 °F 75% 30.53 in 5.0 mi South 4.6 mph - N/A   Haze
2:53 PM 26.1 °F - 18.0 °F 71% 30.54 in 4.0 mi Calm Calm - N/A   Haze
3:53 PM 27.0 °F - 18.0 °F 69% 30.54 in 5.0 mi Calm Calm - N/A   Haze
4:53 PM 26.1 °F - 19.0 °F 75% 30.55 in 5.0 mi Calm Calm - N/A   Haze
5:53 PM 26.1 °F - 19.9 °F 78% 30.57 in 5.0 mi Calm Calm - N/A   Haze
6:53 PM 26.1 °F 21.9 °F 19.9 °F 78% 30.58 in 6.0 mi WSW 3.5 mph - N/A   Haze
7:53 PM 26.1 °F 21.9 °F 19.9 °F 78% 30.59 in 8.0 mi SW 3.5 mph - N/A   Overcast
8:53 PM 26.1 °F 20.5 °F 21.0 °F 81% 30.60 in 7.0 mi WSW 4.6 mph - N/A   Overcast
9:53 PM 26.1 °F 20.5 °F 21.0 °F 81% 30.61 in 7.0 mi SW 4.6 mph - N/A   Overcast
10:53 PM 26.1 °F 20.5 °F 21.0 °F 81% 30.61 in 7.0 mi WSW 4.6 mph - N/A   Overcast
11:53 PM 26.1 °F 21.9 °F 21.0 °F 81% 30.63 in 8.0 mi South 3.5 mph - N/A   Overcast